Weather History for Natchez, MS

Change the Weather History Date:

Tuesday, March 5, 2013

  Actual Average Record
Temperature  
Mean Temperature 57 °F -  
Max Temperature 66 °F 68 °F 83 °F (1963)
Min Temperature 48 °F 44 °F 23 °F (1960)
Degree Days  
Heating Degree Days 8    
Growing Degree Days 7 (Base 50)    
Moisture  
Dew Point 43 °F    
Average Humidity 56    
Maximum Humidity 83    
Minimum Humidity 31    
Precipitation  
Precipitation 0.01 in - - ()
Sea Level Pressure  
Sea Level Pressure 30.04 in    
Wind  
Wind Speed 12 mph (WNW)    
Max Wind Speed 22 mph    
Max Gust Speed 28 mph    
Visibility 10 miles    
Events      
Averages and records for this station are not official NWS values.
T = Trace of Precipitation, MM = Missing Value Source: NWS Daily Summary

Daily Weather History Graph

Daily Weather History Graph

Search for Another Location

Airport:

Trip Planner

Search our weather history database for the weather conditions in past years. The results will help you decide how hot, cold, wet, or windy it might be!

Date:

Astronomy

Mar. 05, 2013 Rise Set
Actual Time 6:27 AM CST 6:06 PM CST
Civil Twilight 6:02 AM CST 6:30 PM CST
Nautical Twilight 5:34 AM CST 6:58 PM CST
Astronomical Twilight 5:06 AM CST 7:27 PM CST
Moon 1:23 AM CST (3/5) 12:01 PM CST (3/5)
Length of Visible Light 12h 27m
Length of Day
11h 39m
Last Quarter, 40% of the Moon is Illuminated
Mar 5
Last Quarter
Mar 11
New
Mar 19
First Quarter
Mar 27
Full
Apr 2
Last Quarter

Hourly Weather History & Observations

Time (CST) Temp. Dew Point Humidity Pressure Visibility Wind Dir Wind Speed Gust Speed Precip Events Conditions
12:15 AM 62.6 °F 55.4 °F 77% 29.89 in 10.0 mi South 12.7 mph 17.3 mph N/A   Overcast
1:35 AM 62.6 °F 55.4 °F 77% 29.88 in 10.0 mi South 11.5 mph - N/A   Mostly Cloudy
1:55 AM 62.6 °F 55.4 °F 77% 29.88 in 10.0 mi South 13.8 mph 18.4 mph N/A   Overcast
2:15 AM 62.6 °F 55.4 °F 77% 29.87 in 10.0 mi South 10.4 mph 16.1 mph N/A   Overcast
2:35 AM 62.6 °F 55.4 °F 77% 29.86 in 10.0 mi South 15.0 mph 18.4 mph N/A   Mostly Cloudy
2:55 AM 62.6 °F 55.4 °F 77% 29.86 in 10.0 mi South 13.8 mph 19.6 mph N/A   Overcast
3:15 AM 62.6 °F 55.4 °F 77% 29.86 in 10.0 mi South 10.4 mph 16.1 mph N/A   Overcast
3:35 AM 64.4 °F 55.4 °F 73% 29.86 in 10.0 mi South 12.7 mph 19.6 mph N/A   Overcast
3:55 AM 64.4 °F 55.4 °F 73% 29.87 in 10.0 mi SSW 10.4 mph 16.1 mph N/A   Overcast
4:15 AM 64.4 °F 55.4 °F 73% 29.86 in 10.0 mi South 13.8 mph 19.6 mph N/A   Overcast
4:36 AM 64.4 °F 57.2 °F 77% 29.87 in 10.0 mi South 11.5 mph 19.6 mph N/A   Overcast
4:55 AM 64.4 °F 57.2 °F 77% 29.89 in 10.0 mi SW 9.2 mph 20.7 mph N/A   Overcast
5:15 AM 64.4 °F 57.2 °F 77% 29.92 in 10.0 mi SW 11.5 mph - N/A   Overcast
5:35 AM 64.4 °F 57.2 °F 77% 29.94 in 10.0 mi SW 9.2 mph 21.9 mph N/A   Overcast
5:55 AM 64.4 °F 57.2 °F 77% 29.95 in 10.0 mi SW 12.7 mph 21.9 mph N/A   Mostly Cloudy
6:15 AM 64.4 °F 57.2 °F 77% 29.95 in 10.0 mi SW 11.5 mph 18.4 mph N/A   Overcast
6:35 AM 62.6 °F 57.2 °F 82% 29.95 in 10.0 mi SW 8.1 mph - N/A   Mostly Cloudy
7:35 AM 62.6 °F 57.2 °F 82% 29.96 in 10.0 mi SW 8.1 mph - N/A   Scattered Clouds
7:55 AM 62.6 °F 57.2 °F 82% 29.95 in 10.0 mi SW 10.4 mph - N/A   Mostly Cloudy
8:15 AM 64.4 °F 57.2 °F 77% 29.96 in 10.0 mi SW 9.2 mph 17.3 mph N/A   Overcast
8:35 AM 64.4 °F 57.2 °F 77% 29.96 in 10.0 mi SW 11.5 mph 16.1 mph N/A   Overcast
8:55 AM 64.4 °F 57.2 °F 77% 29.97 in 10.0 mi SW 15.0 mph 19.6 mph N/A   Overcast
9:15 AM 66.2 °F 57.2 °F 73% 29.97 in 7.0 mi WSW 15.0 mph - N/A   Overcast
9:35 AM 66.2 °F 57.2 °F 73% 29.98 in 10.0 mi SW 16.1 mph 21.9 mph N/A   Overcast
9:55 AM 64.4 °F 59.0 °F 83% 29.99 in 10.0 mi West 12.7 mph 20.7 mph N/A   Overcast
10:15 AM 64.4 °F 57.2 °F 77% 29.99 in 9.0 mi WSW 12.7 mph 18.4 mph N/A   Mostly Cloudy
10:35 AM 57.2 °F 51.8 °F 82% 30.04 in 10.0 mi NW 15.0 mph 23.0 mph 0.01 in   Overcast
10:55 AM 59.0 °F 51.8 °F 77% 30.04 in 10.0 mi NW 10.4 mph 18.4 mph 0.01 in   Mostly Cloudy
11:15 AM 62.6 °F 51.8 °F 68% 30.04 in 10.0 mi NW 13.8 mph 23.0 mph N/A   Partly Cloudy
11:35 AM 62.6 °F 48.2 °F 59% 30.05 in 10.0 mi NNW 15.0 mph 23.0 mph N/A   Clear
11:55 AM 64.4 °F 46.4 °F 52% 30.05 in 10.0 mi NW 16.1 mph 26.5 mph N/A   Clear
12:15 PM 64.4 °F 46.4 °F 52% 30.05 in 10.0 mi NNW 18.4 mph 26.5 mph N/A   Clear
12:35 PM 66.2 °F 46.4 °F 49% 30.05 in 10.0 mi North 18.4 mph 21.9 mph N/A   Clear
12:55 PM 64.4 °F 44.6 °F 49% 30.06 in 10.0 mi North 16.1 mph 23.0 mph N/A   Clear
1:15 PM 64.4 °F 42.8 °F 45% 30.06 in 10.0 mi NNW 17.3 mph 21.9 mph N/A   Clear
1:35 PM 64.4 °F 42.8 °F 45% 30.06 in 10.0 mi NNW 15.0 mph 24.2 mph N/A   Clear
1:55 PM 64.4 °F 42.8 °F 45% 30.06 in 10.0 mi NW 20.7 mph - N/A   Clear
2:15 PM 66.2 °F 41.0 °F 40% 30.06 in 10.0 mi NW 21.9 mph 27.6 mph N/A   Clear
2:35 PM 64.4 °F 37.4 °F 37% 30.07 in 10.0 mi NNW 16.1 mph 24.2 mph N/A   Clear
2:55 PM 64.4 °F 37.4 °F 37% 30.07 in 10.0 mi NW 13.8 mph 18.4 mph N/A   Clear
3:15 PM 64.4 °F 37.4 °F 37% 30.07 in 10.0 mi NNW 15.0 mph - N/A   Clear
3:35 PM 64.4 °F 37.4 °F 37% 30.08 in 10.0 mi North 11.5 mph - N/A   Clear
3:55 PM 64.4 °F 35.6 °F 34% 30.08 in 10.0 mi NW 12.7 mph 21.9 mph N/A   Clear
4:15 PM 64.4 °F 33.8 °F 32% 30.09 in 10.0 mi NW 13.8 mph 21.9 mph N/A   Clear
4:35 PM 62.6 °F 33.8 °F 34% 30.09 in 10.0 mi NNW 15.0 mph 21.9 mph N/A   Clear
4:55 PM 62.6 °F 33.8 °F 34% 30.10 in 10.0 mi North 15.0 mph 19.6 mph N/A   Clear
5:15 PM 62.6 °F 32.0 °F 32% 30.10 in 10.0 mi NNW 12.7 mph 21.9 mph N/A   Clear
5:35 PM 60.8 °F 30.2 °F 31% 30.11 in 10.0 mi North 11.5 mph 17.3 mph N/A   Clear
5:55 PM 60.8 °F 30.2 °F 31% 30.12 in 10.0 mi North 6.9 mph - N/A   Clear
6:15 PM 59.0 °F 30.2 °F 34% 30.12 in 10.0 mi NNW 6.9 mph - N/A   Clear
6:35 PM 57.2 °F 30.2 °F 36% 30.13 in 10.0 mi NNW 4.6 mph - N/A   Clear
6:55 PM 57.2 °F 32.0 °F 38% 30.13 in 10.0 mi NNW 9.2 mph - N/A   Clear
7:15 PM 57.2 °F 30.2 °F 36% 30.15 in 10.0 mi NNW 8.1 mph - N/A   Clear
7:35 PM 55.4 °F 30.2 °F 38% 30.15 in 10.0 mi NNW 9.2 mph - N/A   Clear
7:55 PM 55.4 °F 28.4 °F 36% 30.16 in 10.0 mi NNW 8.1 mph - N/A   Clear
8:15 PM 55.4 °F 28.4 °F 36% 30.17 in 10.0 mi NW 5.8 mph - N/A   Clear
8:35 PM 53.6 °F 30.2 °F 41% 30.18 in 10.0 mi NW 8.1 mph - N/A   Clear
8:55 PM 53.6 °F 30.2 °F 41% 30.19 in 10.0 mi NW 8.1 mph - N/A   Clear
9:15 PM 53.6 °F 28.4 °F 38% 30.19 in 10.0 mi NW 10.4 mph 16.1 mph N/A   Clear
9:35 PM 53.6 °F 28.4 °F 38% 30.21 in 10.0 mi NW 10.4 mph 16.1 mph N/A   Clear
9:55 PM 51.8 °F 28.4 °F 41% 30.22 in 10.0 mi NW 9.2 mph - N/A   Clear
10:15 PM 51.8 °F 26.6 °F 38% 30.23 in 10.0 mi NW 11.5 mph 19.6 mph N/A   Clear
10:35 PM 51.8 °F 24.8 °F 35% 30.23 in 10.0 mi NNW 11.5 mph 17.3 mph N/A   Clear
10:55 PM 50.0 °F 24.8 °F 37% 30.24 in 10.0 mi NNW 10.4 mph - N/A   Clear
11:15 PM 48.2 °F 24.8 °F 40% 30.24 in 10.0 mi NNW 10.4 mph - N/A   Clear
11:35 PM 48.2 °F 24.8 °F 40% 30.25 in 10.0 mi NNW 10.4 mph 17.3 mph N/A   Clear
11:55 PM 48.2 °F 23.0 °F 37% 30.25 in 10.0 mi NNW 8.1 mph - N/A   Clear